| time (UTC) | temp C | wind direction | speed KPH | gust KPH | rain 1hr cm | rain 24hr cm | rain mn cm | humidity % | barometer mb |
| 20260901175853 | 37 | 210 | 1.6 | 9.7 | 0.00 | 0.00 | 0.00 | 33 | 1018.0 |
| 20260901175348 | 36 | 268 | 0.0 | 11.3 | 0.00 | 0.00 | 0.00 | 34 | 1018.2 |
| 20260901174843 | 37 | 69 | 1.6 | 4.8 | 0.00 | 0.00 | 0.00 | 33 | 1018.2 |
| 20260901174333 | 38 | 318 | 1.6 | 3.2 | 0.00 | 0.00 | 0.00 | 32 | 1018.1 |
| 20260901173829 | 37 | 355 | 1.6 | 11.3 | 0.00 | 0.00 | 0.00 | 34 | 1018.3 |
| 20260901173324 | 37 | 271 | 0.0 | 9.7 | 0.00 | 0.00 | 0.00 | 35 | 1018.6 |
| 20260901172821 | 36 | 295 | 1.6 | 11.3 | 0.00 | 0.00 | 0.00 | 34 | 1018.4 |
| 20260901172319 | 36 | 76 | 4.8 | 9.7 | 0.00 | 0.00 | 0.00 | 34 | 1018.6 |
| 20260901171817 | 36 | 199 | 3.2 | 9.7 | 0.00 | 0.00 | 0.00 | 34 | 1018.6 |
| 20260901171317 | 36 | 315 | 3.2 | 11.3 | 0.00 | 0.00 | 0.00 | 34 | 1018.5 |
| 20260901170816 | 36 | 306 | 1.6 | 9.7 | 0.00 | 0.00 | 0.00 | 36 | 1018.7 |
| 20260901170316 | 36 | 247 | 1.6 | 6.4 | 0.00 | 0.00 | 0.00 | 36 | 1018.7 |
| 20260901165815 | 36 | 246 | 3.2 | 9.7 | 0.00 | 0.00 | 0.00 | 35 | 1018.8 |
| 20260901165310 | 36 | 316 | 6.4 | 12.9 | 0.00 | 0.00 | 0.00 | 36 | 1018.8 |
| 20260901164807 | 36 | 191 | 4.8 | 6.4 | 0.00 | 0.00 | 0.00 | 36 | 1018.8 |
| 20260901164301 | 36 | 269 | 3.2 | 6.4 | 0.00 | 0.00 | 0.00 | 38 | 1018.8 |
| 20260901163756 | 36 | 126 | 8.0 | 11.3 | 0.00 | 0.00 | 0.00 | 37 | 1018.9 |
| 20260901163256 | 35 | 188 | 3.2 | 6.4 | 0.00 | 0.00 | 0.00 | 38 | 1018.8 |
| 20260901162751 | 35 | 230 | 9.7 | 12.9 | 0.00 | 0.00 | 0.00 | 38 | 1018.7 |
| 20260901162251 | 35 | 278 | 1.6 | 11.3 | 0.00 | 0.00 | 0.00 | 38 | 1019.0 |
| 20260901161749 | 35 | 67 | 1.6 | 6.4 | 0.00 | 0.00 | 0.00 | 38 | 1019.2 |
| 20260901161244 | 35 | 252 | 1.6 | 12.9 | 0.00 | 0.00 | 0.00 | 38 | 1018.9 |
| 20260901160740 | 35 | 268 | 3.2 | 16.1 | 0.00 | 0.00 | 0.00 | 39 | 1019.0 |
| 20260901160236 | 35 | 259 | 3.2 | 11.3 | 0.00 | 0.00 | 0.00 | 39 | 1018.9 |
| 20260901155735 | 35 | 94 | 1.6 | 4.8 | 0.00 | 0.00 | 0.00 | 40 | 1019.2 |
| 20260901155230 | 35 | 243 | 4.8 | 6.4 | 0.00 | 0.00 | 0.00 | 39 | 1019.0 |
| 20260901154725 | 35 | 295 | 4.8 | 9.7 | 0.00 | 0.00 | 0.00 | 40 | 1018.9 |
| 20260901154221 | 34 | 189 | 3.2 | 3.2 | 0.00 | 0.00 | 0.00 | 40 | 1018.9 |
| 20260901153716 | 33 | 231 | 3.2 | 6.4 | 0.00 | 0.00 | 0.00 | 42 | 1019.0 |
| 20260901153215 | 33 | 105 | 1.6 | 9.7 | 0.00 | 0.00 | 0.00 | 42 | 1018.9 |
| 20260901152709 | 33 | 261 | 4.8 | 6.4 | 0.00 | 0.00 | 0.00 | 42 | 1019.0 |
| 20260901152208 | 33 | 308 | 1.6 | 9.7 | 0.00 | 0.00 | 0.00 | 42 | 1019.0 |
| 20260901151704 | 33 | 230 | 1.6 | 4.8 | 0.00 | 0.00 | 0.00 | 43 | 1018.7 |
| 20260901151203 | 33 | 285 | 3.2 | 6.4 | 0.00 | 0.00 | 0.00 | 43 | 1019.0 |
| 20260901150658 | 33 | 223 | 3.2 | 6.4 | 0.00 | 0.00 | 0.00 | 43 | 1019.2 |
| 20260901150156 | 32 | 215 | 0.0 | 4.8 | 0.00 | 0.00 | 0.00 | 44 | 1019.0 |
| 20260901145653 | 32 | 93 | 1.6 | 6.4 | 0.00 | 0.00 | 0.00 | 45 | 1019.0 |
| 20260901145148 | 32 | 56 | 1.6 | 3.2 | 0.00 | 0.00 | 0.00 | 45 | 1019.0 |
| 20260901144644 | 31 | 208 | 3.2 | 9.7 | 0.00 | 0.00 | 0.00 | 46 | 1019.3 |
| 20260901144138 | 32 | 133 | 1.6 | 4.8 | 0.00 | 0.00 | 0.00 | 46 | 1019.2 |
| 20260901143634 | 31 | 200 | 1.6 | 9.7 | 0.00 | 0.00 | 0.00 | 47 | 1019.2 |
| 20260901143130 | 31 | 270 | 1.6 | 11.3 | 0.00 | 0.00 | 0.00 | 48 | 1019.2 |
| 20260901142626 | 31 | 155 | 3.2 | 14.5 | 0.00 | 0.00 | 0.00 | 48 | 1019.2 |
| 20260901142125 | 31 | 256 | 3.2 | 4.8 | 0.00 | 0.00 | 0.00 | 49 | 1019.4 |
| 20260901141620 | 31 | 196 | 1.6 | 9.7 | 0.00 | 0.00 | 0.00 | 49 | 1019.2 |
| 20260901141120 | 30 | 225 | 3.2 | 4.8 | 0.00 | 0.00 | 0.00 | 50 | 1019.3 |
| 20260901140619 | 30 | 138 | 3.2 | 4.8 | 0.00 | 0.00 | 0.00 | 50 | 1019.2 |
| 20260901140118 | 30 | 69 | 1.6 | 3.2 | 0.00 | 0.00 | 0.00 | 51 | 1019.5 |
| 20260901135618 | 30 | 4 | 0.0 | 9.7 | 0.00 | 0.00 | 0.00 | 51 | 1019.3 |
| 20260901135113 | 29 | 38 | 3.2 | 6.4 | 0.00 | 0.00 | 0.00 | 52 | 1019.3 |
| 20260901134609 | 29 | 165 | 1.6 | 4.8 | 0.00 | 0.00 | 0.00 | 52 | 1019.2 |
| 20260901134104 | 28 | 276 | 1.6 | 9.7 | 0.00 | 0.00 | 0.00 | 53 | 1019.0 |
| 20260901133602 | 28 | 264 | 1.6 | 4.8 | 0.00 | 0.00 | 0.00 | 54 | 1019.0 |
| 20260901133101 | 28 | 237 | 1.6 | 4.8 | 0.00 | 0.00 | 0.00 | 54 | 1019.2 |
| 20260901132556 | 28 | 149 | 1.6 | 3.2 | 0.00 | 0.00 | 0.00 | 54 | 1018.9 |
| 20260901132050 | 28 | 295 | 0.0 | 3.2 | 0.00 | 0.00 | 0.00 | 55 | 1018.7 |
| 20260901131551 | 27 | 358 | 0.0 | 1.6 | 0.00 | 0.00 | 0.00 | 56 | 1018.8 |
| 20260901131046 | 27 | 355 | 1.6 | 1.6 | 0.00 | 0.00 | 0.00 | 57 | 1018.9 |
| 20260901130545 | 27 | 168 | 3.2 | 3.2 | 0.00 | 0.00 | 0.00 | 57 | 1018.8 |
| 20260901130044 | 27 | 309 | 1.6 | 4.8 | 0.00 | 0.00 | 0.00 | 57 | 1018.7 |
| 20260901125543 | 27 | 254 | 0.0 | 4.8 | 0.00 | 0.00 | 0.00 | 58 | 1018.6 |
| 20260901125038 | 27 | 68 | 3.2 | 4.8 | 0.00 | 0.00 | 0.00 | 58 | 1018.8 |
| 20260901124533 | 27 | 42 | 1.6 | 4.8 | 0.00 | 0.00 | 0.00 | 58 | 1018.7 |
| 20260901124032 | 27 | 42 | 1.6 | 4.8 | 0.00 | 0.00 | 0.00 | 58 | 1018.7 |
| 20260901123527 | 27 | 248 | 1.6 | 6.4 | 0.00 | 0.00 | 0.00 | 58 | 1018.5 |
| 20260901123028 | 27 | 245 | 1.6 | 3.2 | 0.00 | 0.00 | 0.00 | 58 | 1018.5 |
| 20260901122526 | 27 | 29 | 4.8 | 9.7 | 0.00 | 0.00 | 0.00 | 57 | 1018.4 |
| 20260901122026 | 27 | 281 | 1.6 | 3.2 | 0.00 | 0.00 | 0.00 | 58 | 1018.3 |
| 20260901121520 | 27 | 110 | 0.0 | 1.6 | 0.00 | 0.00 | 0.00 | 58 | 1018.3 |
| 20260901121016 | 27 | 331 | 1.6 | 9.7 | 0.00 | 0.00 | 0.00 | 57 | 1018.3 |
| 20260901120515 | 27 | 136 | 1.6 | 4.8 | 0.00 | 0.00 | 0.00 | 57 | 1018.4 |
| 20260901120012 | 27 | 159 | 4.8 | 6.4 | 0.00 | 0.00 | 0.00 | 57 | 1018.1 |
| 20260901115506 | 27 | 187 | 4.8 | 6.4 | 0.00 | 0.00 | 0.00 | 57 | 1018.1 |
| 20260901115004 | 27 | 321 | 6.4 | 6.4 | 0.00 | 0.00 | 0.00 | 56 | 1018.3 |
| 20260901114459 | 27 | 268 | 6.4 | 9.7 | 0.00 | 0.00 | 0.00 | 57 | 1018.1 |
| 20260901113956 | 27 | 283 | 3.2 | 4.8 | 0.00 | 0.00 | 0.00 | 56 | 1017.9 |
| 20260901113456 | 27 | 12 | 1.6 | 6.4 | 0.00 | 0.00 | 0.00 | 56 | 1018.0 |
| 20260901112952 | 27 | 240 | 0.0 | 3.2 | 0.00 | 0.00 | 0.00 | 56 | 1018.1 |
| 20260901112447 | 27 | 20 | 1.6 | 9.7 | 0.00 | 0.00 | 0.00 | 56 | 1018.0 |
| 20260901111942 | 27 | 265 | 0.0 | 6.4 | 0.00 | 0.00 | 0.00 | 56 | 1017.9 |
| 20260901111440 | 27 | 254 | 3.2 | 4.8 | 0.00 | 0.00 | 0.00 | 55 | 1018.1 |
| 20260901110938 | 27 | 162 | 1.6 | 6.4 | 0.00 | 0.00 | 0.00 | 55 | 1018.1 |
| 20260901110434 | 27 | 156 | 3.2 | 6.4 | 0.00 | 0.00 | 0.00 | 55 | 1017.8 |
| 20260901105930 | 27 | 317 | 3.2 | 9.7 | 0.00 | 0.00 | 0.00 | 55 | 1017.9 |
| 20260901105426 | 27 | 266 | 3.2 | 3.2 | 0.00 | 0.00 | 0.00 | 55 | 1017.8 |
| 20260901104921 | 27 | 291 | 1.6 | 3.2 | 0.00 | 0.00 | 0.00 | 55 | 1017.9 |
| 20260901104416 | 27 | 261 | 3.2 | 6.4 | 0.00 | 0.00 | 0.00 | 55 | 1018.0 |
| 20260901103912 | 26 | 220 | 0.0 | 3.2 | 0.00 | 0.00 | 0.00 | 55 | 1018.1 |
| 20260901103412 | 26 | 283 | 1.6 | 4.8 | 0.00 | 0.00 | 0.00 | 55 | 1017.8 |
| 20260901102907 | 27 | 351 | 0.0 | 3.2 | 0.00 | 0.00 | 0.00 | 55 | 1017.9 |
| 20260901102401 | 27 | 106 | 0.0 | 3.2 | 0.00 | 0.00 | 0.00 | 55 | 1017.9 |
| 20260901101856 | 27 | 256 | 1.6 | 3.2 | 0.00 | 0.00 | 0.00 | 55 | 1017.9 |
| 20260901101351 | 27 | 227 | 0.0 | 3.2 | 0.00 | 0.00 | 0.00 | 54 | 1017.6 |
| 20260901100850 | 27 | 236 | 1.6 | 3.2 | 0.00 | 0.00 | 0.00 | 54 | 1017.9 |
| 20260901100345 | 27 | 167 | 1.6 | 3.2 | 0.00 | 0.00 | 0.00 | 53 | 1017.7 |
| 20260901095839 | 27 | 291 | 1.6 | 4.8 | 0.00 | 0.00 | 0.00 | 53 | 1017.8 |
| 20260901095336 | 27 | 269 | 1.6 | 3.2 | 0.00 | 0.00 | 0.00 | 52 | 1017.8 |
| 20260901094830 | 27 | 247 | 1.6 | 4.8 | 0.00 | 0.00 | 0.00 | 52 | 1017.8 |
| 20260901094325 | 27 | 134 | 1.6 | 3.2 | 0.00 | 0.00 | 0.00 | 52 | 1017.8 |
| 20260901093820 | 27 | 284 | 0.0 | 4.8 | 0.00 | 0.00 | 0.00 | 52 | 1017.7 |
| 20260901093319 | 27 | 285 | 3.2 | 3.2 | 0.00 | 0.00 | 0.00 | 52 | 1017.6 |
| 20260901092815 | 26 | 289 | 0.0 | 4.8 | 0.00 | 0.00 | 0.00 | 53 | 1017.6 |
| 20260901092306 | 26 | 74 | 1.6 | 3.2 | 0.00 | 0.00 | 0.00 | 53 | 1017.6 |
| 20260901091800 | 26 | 104 | 1.6 | 1.6 | 0.00 | 0.00 | 0.00 | 54 | 1017.5 |
| 20260901091255 | 26 | 102 | 3.2 | 3.2 | 0.00 | 0.00 | 0.00 | 54 | 1017.8 |
| 20260901090750 | 26 | 102 | 0.0 | 1.6 | 0.00 | 0.00 | 0.00 | 55 | 1017.7 |
| 20260901090245 | 26 | 96 | 0.0 | 1.6 | 0.00 | 0.00 | 0.00 | 55 | 1017.5 |
| 20260901085741 | 26 | 228 | 0.0 | 1.6 | 0.00 | 0.00 | 0.00 | 55 | 1017.7 |
| 20260901085236 | 26 | 228 | 0.0 | 1.6 | 0.00 | 0.00 | 0.00 | 55 | 1017.6 |
| 20260901084732 | 26 | 228 | 0.0 | 1.6 | 0.00 | 0.00 | 0.00 | 55 | 1017.4 |
| 20260901084228 | 25 | 229 | 0.0 | 0.0 | 0.00 | 0.00 | 0.00 | 55 | 1017.5 |
| 20260901083723 | 26 | 229 | 0.0 | 1.6 | 0.00 | 0.00 | 0.00 | 55 | 1017.4 |
| 20260901083222 | 25 | 229 | 0.0 | 1.6 | 0.00 | 0.00 | 0.00 | 55 | 1017.4 |
| 20260901082721 | 25 | 229 | 0.0 | 1.6 | 0.00 | 0.00 | 0.00 | 55 | 1017.3 |
| 20260901082217 | 25 | 229 | 0.0 | 1.6 | 0.00 | 0.00 | 0.00 | 56 | 1017.4 |
| 20260901081712 | 25 | 229 | 0.0 | 0.0 | 0.00 | 0.00 | 0.00 | 56 | 1017.3 |
| 20260901081212 | 25 | 229 | 0.0 | 0.0 | 0.00 | 0.00 | 0.00 | 56 | 1017.4 |
| 20260901080707 | 25 | 229 | 0.0 | 0.0 | 0.00 | 0.00 | 0.00 | 57 | 1017.4 |
| 20260901080206 | 25 | 229 | 0.0 | 0.0 | 0.00 | 0.00 | 0.00 | 57 | 1017.3 |
| 20260901075701 | 25 | 229 | 0.0 | 0.0 | 0.00 | 0.00 | 0.00 | 57 | 1017.4 |
| 20260901075200 | 25 | 229 | 0.0 | 0.0 | 0.00 | 0.00 | 0.00 | 57 | 1017.4 |
| 20260901074659 | 25 | 229 | 0.0 | 0.0 | 0.00 | 0.00 | 0.00 | 56 | 1017.5 |
| 20260901074154 | 25 | 229 | 0.0 | 0.0 | 0.00 | 0.00 | 0.00 | 57 | 1017.6 |
| 20260901073651 | 25 | 229 | 0.0 | 0.0 | 0.00 | 0.00 | 0.00 | 56 | 1017.2 |
| 20260901073146 | 25 | 229 | 0.0 | 0.0 | 0.00 | 0.00 | 0.00 | 56 | 1017.3 |
| 20260901072641 | 26 | 229 | 0.0 | 0.0 | 0.00 | 0.00 | 0.00 | 55 | 1017.3 |
| 20260901072136 | 26 | 229 | 0.0 | 0.0 | 0.00 | 0.00 | 0.00 | 55 | 1017.4 |
| 20260901071631 | 26 | 229 | 0.0 | 0.0 | 0.00 | 0.00 | 0.00 | 55 | 1017.3 |
| 20260901071130 | 26 | 229 | 0.0 | 0.0 | 0.00 | 0.00 | 0.00 | 55 | 1017.4 |
| 20260901070624 | 26 | 229 | 0.0 | 0.0 | 0.00 | 0.00 | 0.00 | 54 | 1017.3 |
| 20260901070120 | 26 | 229 | 0.0 | 0.0 | 0.00 | 0.00 | 0.00 | 53 | 1017.4 |
| 20260901065609 | 27 | 229 | 0.0 | 0.0 | 0.00 | 0.00 | 0.00 | 52 | 1017.4 |
| 20260901065108 | 27 | 229 | 0.0 | 0.0 | 0.00 | 0.00 | 0.00 | 51 | 1017.4 |
| 20260901064606 | 27 | 229 | 0.0 | 0.0 | 0.00 | 0.00 | 0.00 | 51 | 1017.4 |
| 20260901064102 | 27 | 229 | 0.0 | 0.0 | 0.00 | 0.00 | 0.00 | 51 | 1017.4 |
| 20260901063553 | 27 | 229 | 0.0 | 1.6 | 0.00 | 0.00 | 0.00 | 50 | 1017.4 |
| 20260901063048 | 27 | 229 | 0.0 | 0.0 | 0.00 | 0.00 | 0.00 | 51 | 1017.4 |
| 20260901062544 | 27 | 229 | 0.0 | 0.0 | 0.00 | 0.00 | 0.00 | 50 | 1017.3 |
| 20260901062040 | 27 | 229 | 0.0 | 0.0 | 0.00 | 0.00 | 0.00 | 50 | 1017.4 |
| 20260901061536 | 27 | 229 | 0.0 | 0.0 | 0.00 | 0.00 | 0.00 | 50 | 1017.3 |
| 20260901061031 | 27 | 229 | 0.0 | 0.0 | 0.00 | 0.00 | 0.00 | 49 | 1017.4 |
| 20260901060530 | 27 | 229 | 0.0 | 0.0 | 0.00 | 0.00 | 0.00 | 50 | 1017.3 |
| 20260901060025 | 27 | 229 | 0.0 | 1.6 | 0.00 | 0.00 | 0.00 | 49 | 1017.5 |
| 20260901055516 | 27 | 229 | 0.0 | 0.0 | 0.00 | 0.00 | 0.00 | 49 | 1017.3 |
| 20260901055013 | 28 | 229 | 0.0 | 0.0 | 0.00 | 0.00 | 0.00 | 49 | 1017.5 |
| 20260901054509 | 28 | 229 | 0.0 | 0.0 | 0.00 | 0.00 | 0.00 | 49 | 1017.6 |
| 20260901054004 | 28 | 229 | 0.0 | 0.0 | 0.00 | 0.00 | 0.00 | 48 | 1017.4 |
| 20260901053454 | 28 | 229 | 0.0 | 0.0 | 0.00 | 0.00 | 0.00 | 47 | 1017.3 |
| 20260901052949 | 28 | 229 | 0.0 | 1.6 | 0.00 | 0.00 | 0.00 | 46 | 1017.4 |
| 20260901052446 | 28 | 169 | 0.0 | 1.6 | 0.00 | 0.00 | 0.00 | 47 | 1017.4 |
| 20260901051944 | 28 | 165 | 0.0 | 1.6 | 0.00 | 0.00 | 0.00 | 47 | 1017.3 |
| 20260901051439 | 28 | 165 | 0.0 | 1.6 | 0.00 | 0.00 | 0.00 | 46 | 1017.2 |
| 20260901050933 | 28 | 97 | 0.0 | 1.6 | 0.00 | 0.00 | 0.00 | 46 | 1017.3 |
| 20260901050429 | 29 | 70 | 0.0 | 0.0 | 0.00 | 0.00 | 0.00 | 46 | 1017.3 |
| 20260901045928 | 29 | 138 | 0.0 | 0.0 | 0.00 | 0.00 | 0.00 | 46 | 1017.2 |
| 20260901045423 | 29 | 173 | 0.0 | 0.0 | 0.00 | 0.00 | 0.00 | 47 | 1017.2 |
| 20260901044918 | 29 | 173 | 0.0 | 0.0 | 0.00 | 0.00 | 0.00 | 45 | 1017.3 |
| 20260901044415 | 29 | 117 | 0.0 | 0.0 | 0.00 | 0.00 | 0.00 | 45 | 1017.2 |
| 20260901043911 | 30 | 83 | 0.0 | 1.6 | 0.00 | 0.00 | 0.00 | 44 | 1017.2 |
| 20260901043407 | 30 | 268 | 1.6 | 1.6 | 0.00 | 0.00 | 0.00 | 44 | 1017.2 |
| 20260901042906 | 30 | 269 | 0.0 | 0.0 | 0.00 | 0.00 | 0.00 | 45 | 1017.2 |
| 20260901042401 | 30 | 269 | 1.6 | 1.6 | 0.00 | 0.00 | 0.00 | 43 | 1017.1 |
| 20260901041856 | 30 | 169 | 0.0 | 4.8 | 0.00 | 0.00 | 0.00 | 42 | 1017.0 |
| 20260901041351 | 30 | 14 | 0.0 | 1.6 | 0.00 | 0.00 | 0.00 | 42 | 1016.9 |
| 20260901040845 | 31 | 61 | 1.6 | 3.2 | 0.00 | 0.00 | 0.00 | 42 | 1017.1 |
| 20260901040344 | 31 | 211 | 0.0 | 1.6 | 0.00 | 0.00 | 0.00 | 42 | 1017.0 |
| 20260901035839 | 31 | 104 | 1.6 | 3.2 | 0.00 | 0.00 | 0.00 | 41 | 1017.0 |
| 20260901035337 | 31 | 64 | 0.0 | 3.2 | 0.00 | 0.00 | 0.00 | 41 | 1017.0 |
| 20260901034836 | 31 | 236 | 0.0 | 3.2 | 0.00 | 0.00 | 0.00 | 41 | 1017.2 |
| 20260901034332 | 31 | 177 | 3.2 | 3.2 | 0.00 | 0.00 | 0.00 | 41 | 1017.0 |
| 20260901033831 | 31 | 242 | 1.6 | 3.2 | 0.00 | 0.00 | 0.00 | 41 | 1016.9 |
| 20260901033330 | 31 | 230 | 1.6 | 3.2 | 0.00 | 0.00 | 0.00 | 40 | 1016.8 |
| 20260901032829 | 31 | 290 | 1.6 | 9.7 | 0.00 | 0.00 | 0.00 | 40 | 1017.0 |
| 20260901032329 | 31 | 215 | 0.0 | 4.8 | 0.00 | 0.00 | 0.00 | 41 | 1016.9 |
| 20260901031824 | 31 | 224 | 0.0 | 3.2 | 0.00 | 0.00 | 0.00 | 41 | 1016.9 |
| 20260901031320 | 31 | 283 | 1.6 | 4.8 | 0.00 | 0.00 | 0.00 | 40 | 1016.9 |
| 20260901030819 | 31 | 234 | 0.0 | 4.8 | 0.00 | 0.00 | 0.00 | 41 | 1016.8 |
| 20260901030314 | 31 | 326 | 1.6 | 3.2 | 0.00 | 0.00 | 0.00 | 40 | 1016.7 |
| 20260901025813 | 31 | 285 | 1.6 | 3.2 | 0.00 | 0.00 | 0.00 | 40 | 1016.5 |
| 20260901025308 | 31 | 30 | 0.0 | 3.2 | 0.00 | 0.00 | 0.00 | 40 | 1016.5 |
| 20260901024758 | 31 | 187 | 0.0 | 3.2 | 0.00 | 0.00 | 0.00 | 40 | 1016.6 |
| 20260901024257 | 31 | 225 | 1.6 | 3.2 | 0.00 | 0.00 | 0.00 | 39 | 1016.5 |
| 20260901023755 | 31 | 286 | 0.0 | 3.2 | 0.00 | 0.00 | 0.00 | 39 | 1016.4 |
| 20260901023250 | 32 | 274 | 3.2 | 4.8 | 0.00 | 0.00 | 0.00 | 39 | 1016.5 |
| 20260901022746 | 32 | 145 | 0.0 | 1.6 | 0.00 | 0.00 | 0.00 | 39 | 1016.2 |
| 20260901022242 | 32 | 183 | 0.0 | 1.6 | 0.00 | 0.00 | 0.00 | 39 | 1016.1 |
| 20260901021736 | 32 | 84 | 0.0 | 1.6 | 0.00 | 0.00 | 0.00 | 38 | 1015.7 |
| 20260901021232 | 32 | 131 | 0.0 | 3.2 | 0.00 | 0.00 | 0.00 | 38 | 1015.8 |
| 20260901020727 | 32 | 136 | 0.0 | 3.2 | 0.00 | 0.00 | 0.00 | 37 | 1015.8 |
| 20260901020222 | 32 | 80 | 0.0 | 1.6 | 0.00 | 0.00 | 0.00 | 37 | 1015.7 |
| 20260901015717 | 33 | 43 | 0.0 | 3.2 | 0.00 | 0.00 | 0.00 | 37 | 1015.8 |
| 20260901015212 | 33 | 54 | 0.0 | 3.2 | 0.00 | 0.00 | 0.00 | 36 | 1015.6 |
| 20260901014706 | 33 | 19 | 0.0 | 1.6 | 0.00 | 0.00 | 0.00 | 36 | 1015.5 |
| 20260901014203 | 33 | 306 | 0.0 | 4.8 | 0.00 | 0.00 | 0.00 | 35 | 1015.6 |
| 20260901013653 | 33 | 112 | 0.0 | 4.8 | 0.00 | 0.00 | 0.00 | 35 | 1015.6 |
| 20260901013148 | 33 | 318 | 3.2 | 4.8 | 0.00 | 0.00 | 0.00 | 35 | 1015.5 |
| 20260901012643 | 33 | 125 | 0.0 | 4.8 | 0.00 | 0.00 | 0.00 | 34 | 1015.5 |
| 20260901012138 | 34 | 14 | 0.0 | 4.8 | 0.00 | 0.00 | 0.00 | 34 | 1015.3 |
| 20260901011634 | 34 | 89 | 6.4 | 6.4 | 0.00 | 0.00 | 0.00 | 34 | 1015.3 |
| 20260901011133 | 34 | 210 | 3.2 | 9.7 | 0.00 | 0.00 | 0.00 | 34 | 1015.2 |
| 20260901010628 | 34 | 33 | 1.6 | 3.2 | 0.00 | 0.00 | 0.00 | 34 | 1015.3 |
| 20260901010127 | 35 | 40 | 1.6 | 4.8 | 0.00 | 0.00 | 0.00 | 33 | 1015.1 |
| 20260901005626 | 35 | 49 | 1.6 | 6.4 | 0.00 | 0.00 | 0.00 | 34 | 1015.1 |
| 20260901005121 | 35 | 205 | 1.6 | 9.7 | 0.00 | 0.00 | 0.00 | 33 | 1015.1 |
| 20260901004620 | 35 | 36 | 0.0 | 3.2 | 0.00 | 0.00 | 0.00 | 33 | 1015.1 |
| 20260901004116 | 35 | 216 | 1.6 | 1.6 | 0.00 | 0.00 | 0.00 | 33 | 1015.1 |
| 20260901003611 | 35 | 71 | 1.6 | 3.2 | 0.00 | 0.00 | 0.00 | 33 | 1015.2 |
| 20260901003110 | 35 | 45 | 3.2 | 9.7 | 0.00 | 0.00 | 0.00 | 33 | 1015.2 |
| 20260901002609 | 35 | 229 | 4.8 | 6.4 | 0.00 | 0.00 | 0.00 | 33 | 1014.9 |
| 20260901002104 | 35 | 356 | 4.8 | 6.4 | 0.00 | 0.00 | 0.00 | 33 | 1015.0 |
| 20260901001559 | 36 | 287 | 0.0 | 11.3 | 0.00 | 0.00 | 0.00 | 33 | 1014.9 |
| 20260901001054 | 36 | 23 | 4.8 | 6.4 | 0.00 | 0.00 | 0.00 | 32 | 1015.0 |
| 20260901000549 | 36 | 20 | 0.0 | 3.2 | 0.00 | 0.00 | 0.00 | 32 | 1015.2 |
| 20260901000045 | 36 | 183 | 3.2 | 4.8 | 0.00 | 0.00 | 0.00 | 32 | 1015.2 |
| 20260831235538 | 36 | 296 | 6.4 | 9.7 | 0.00 | 0.00 | 0.00 | 32 | 1014.9 |
| 20260831235034 | 36 | 296 | 3.2 | 6.4 | 0.00 | 0.00 | 0.00 | 32 | 1015.1 |
| 20260831234528 | 36 | 33 | 1.6 | 11.3 | 0.00 | 0.00 | 0.00 | 31 | 1015.1 |
| 20260831234024 | 36 | 67 | 1.6 | 3.2 | 0.00 | 0.00 | 0.00 | 32 | 1015.2 |
| 20260831233519 | 36 | 13 | 1.6 | 4.8 | 0.00 | 0.00 | 0.00 | 32 | 1015.3 |
| 20260831233015 | 36 | 292 | 1.6 | 3.2 | 0.00 | 0.00 | 0.00 | 32 | 1015.2 |
| 20260831232510 | 37 | 70 | 1.6 | 4.8 | 0.00 | 0.00 | 0.00 | 32 | 1015.1 |
| 20260831232006 | 37 | 5 | 1.6 | 11.3 | 0.00 | 0.00 | 0.00 | 32 | 1015.2 |
| 20260831231502 | 37 | 260 | 1.6 | 11.3 | 0.00 | 0.00 | 0.00 | 32 | 1015.0 |
| 20260831230957 | 37 | 359 | 0.0 | 9.7 | 0.00 | 0.00 | 0.00 | 32 | 1015.2 |
| 20260831230452 | 37 | 183 | 3.2 | 11.3 | 0.00 | 0.00 | 0.00 | 32 | 1015.3 |
| 20260831225947 | 37 | 278 | 6.4 | 12.9 | 0.00 | 0.00 | 0.00 | 31 | 1015.0 |
| 20260831225443 | 37 | 39 | 1.6 | 6.4 | 0.00 | 0.00 | 0.00 | 32 | 1015.0 |
| 20260831224938 | 37 | 35 | 6.4 | 9.7 | 0.00 | 0.00 | 0.00 | 31 | 1015.2 |
| 20260831224437 | 37 | 251 | 8.0 | 12.9 | 0.00 | 0.00 | 0.00 | 31 | 1015.1 |
| 20260831223932 | 37 | 56 | 4.8 | 9.7 | 0.00 | 0.00 | 0.00 | 31 | 1015.0 |
| 20260831223427 | 38 | 262 | 1.6 | 11.3 | 0.00 | 0.00 | 0.00 | 31 | 1014.9 |
| 20260831222924 | 38 | 237 | 4.8 | 11.3 | 0.00 | 0.00 | 0.00 | 30 | 1015.2 |
| 20260831222419 | 38 | 28 | 1.6 | 6.4 | 0.00 | 0.00 | 0.00 | 30 | 1015.0 |
| 20260831221914 | 38 | 215 | 3.2 | 4.8 | 0.00 | 0.00 | 0.00 | 30 | 1015.0 |
| 20260831221410 | 38 | 153 | 0.0 | 4.8 | 0.00 | 0.00 | 0.00 | 30 | 1014.9 |
| 20260831220905 | 38 | 129 | 4.8 | 9.7 | 0.00 | 0.00 | 0.00 | 31 | 1015.1 |
| 20260831220355 | 38 | 215 | 1.6 | 6.4 | 0.00 | 0.00 | 0.00 | 30 | 1014.9 |
| 20260831215850 | 39 | 217 | 3.2 | 14.5 | 0.00 | 0.00 | 0.00 | 31 | 1015.1 |
| 20260831215345 | 39 | 290 | 3.2 | 11.3 | 0.00 | 0.00 | 0.00 | 29 | 1015.0 |
| 20260831214842 | 39 | 271 | 6.4 | 11.3 | 0.00 | 0.00 | 0.00 | 29 | 1015.0 |
| 20260831214339 | 40 | 265 | 4.8 | 4.8 | 0.00 | 0.00 | 0.00 | 28 | 1015.0 |
| 20260831213833 | 39 | 276 | 3.2 | 4.8 | 0.00 | 0.00 | 0.00 | 30 | 1015.3 |
| 20260831213330 | 40 | 252 | 8.0 | 14.5 | 0.00 | 0.00 | 0.00 | 29 | 1015.4 |
| 20260831212825 | 40 | 244 | 3.2 | 9.7 | 0.00 | 0.00 | 0.00 | 29 | 1015.4 |
| 20260831212322 | 40 | 261 | 1.6 | 6.4 | 0.00 | 0.00 | 0.00 | 29 | 1015.5 |
| 20260831211820 | 39 | 285 | 1.6 | 4.8 | 0.00 | 0.00 | 0.00 | 30 | 1015.6 |
| 20260831211315 | 38 | 263 | 1.6 | 9.7 | 0.00 | 0.00 | 0.00 | 30 | 1015.4 |
| 20260831210810 | 39 | 166 | 8.0 | 14.5 | 0.00 | 0.00 | 0.00 | 30 | 1015.5 |
| 20260831210307 | 39 | 269 | 6.4 | 11.3 | 0.00 | 0.00 | 0.00 | 31 | 1015.7 |
| 20260831205806 | 38 | 295 | 6.4 | 11.3 | 0.00 | 0.00 | 0.00 | 30 | 1015.6 |
| 20260831205305 | 38 | 160 | 3.2 | 4.8 | 0.00 | 0.00 | 0.00 | 30 | 1015.9 |
| 20260831204755 | 37 | 222 | 0.0 | 4.8 | 0.00 | 0.00 | 0.00 | 32 | 1015.7 |
| 20260831204254 | 38 | 298 | 3.2 | 4.8 | 0.00 | 0.00 | 0.00 | 31 | 1015.9 |
| 20260831203754 | 38 | 322 | 4.8 | 9.7 | 0.00 | 0.00 | 0.00 | 30 | 1015.6 |
| 20260831203248 | 40 | 249 | 3.2 | 4.8 | 0.00 | 0.00 | 0.00 | 29 | 1015.8 |
| 20260831202747 | 39 | 86 | 4.8 | 17.7 | 0.00 | 0.00 | 0.00 | 30 | 1015.8 |
| 20260831202242 | 40 | 212 | 3.2 | 9.7 | 0.00 | 0.00 | 0.00 | 29 | 1015.8 |
| 20260831201737 | 39 | 30 | 3.2 | 6.4 | 0.00 | 0.00 | 0.00 | 30 | 1016.1 |
| 20260831201236 | 39 | 50 | 1.6 | 4.8 | 0.00 | 0.00 | 0.00 | 30 | 1016.2 |
| 20260831200732 | 39 | 41 | 4.8 | 11.3 | 0.00 | 0.00 | 0.00 | 30 | 1016.2 |
| 20260831200232 | 39 | 338 | 3.2 | 4.8 | 0.00 | 0.00 | 0.00 | 30 | 1016.3 |
| 20260831195727 | 39 | 253 | 6.4 | 9.7 | 0.00 | 0.00 | 0.00 | 30 | 1016.1 |
| 20260831195223 | 39 | 41 | 3.2 | 9.7 | 0.00 | 0.00 | 0.00 | 30 | 1016.5 |
| 20260831194718 | 40 | 110 | 3.2 | 14.5 | 0.00 | 0.00 | 0.00 | 28 | 1016.6 |
| 20260831194214 | 39 | 331 | 1.6 | 4.8 | 0.00 | 0.00 | 0.00 | 29 | 1016.5 |
| 20260831193707 | 38 | 275 | 1.6 | 11.3 | 0.00 | 0.00 | 0.00 | 30 | 1016.4 |
| 20260831193202 | 39 | 239 | 8.0 | 12.9 | 0.00 | 0.00 | 0.00 | 29 | 1016.4 |
| 20260831192657 | 38 | 249 | 1.6 | 4.8 | 0.00 | 0.00 | 0.00 | 30 | 1016.5 |
| 20260831192153 | 39 | 183 | 8.0 | 9.7 | 0.00 | 0.00 | 0.00 | 31 | 1016.6 |
| 20260831191648 | 38 | 291 | 4.8 | 6.4 | 0.00 | 0.00 | 0.00 | 31 | 1016.6 |
| 20260831191144 | 38 | 267 | 6.4 | 9.7 | 0.00 | 0.00 | 0.00 | 32 | 1016.6 |
| 20260831190639 | 37 | 51 | 1.6 | 11.3 | 0.00 | 0.00 | 0.00 | 32 | 1016.7 |
| 20260831190138 | 38 | 189 | 3.2 | 6.4 | 0.00 | 0.00 | 0.00 | 33 | 1016.9 |
| 20260831185634 | 39 | 235 | 4.8 | 6.4 | 0.00 | 0.00 | 0.00 | 31 | 1016.9 |
| 20260831185130 | 38 | 135 | 1.6 | 4.8 | 0.00 | 0.00 | 0.00 | 31 | 1016.7 |
| 20260831184629 | 38 | 246 | 4.8 | 6.4 | 0.00 | 0.00 | 0.00 | 31 | 1017.0 |
| 20260831184125 | 37 | 205 | 3.2 | 4.8 | 0.00 | 0.00 | 0.00 | 32 | 1017.0 |
| 20260831183619 | 38 | 337 | 3.2 | 6.4 | 0.00 | 0.00 | 0.00 | 33 | 1017.1 |
| 20260831183118 | 38 | 168 | 3.2 | 9.7 | 0.00 | 0.00 | 0.00 | 32 | 1017.2 |
| 20260831182617 | 38 | 243 | 0.0 | 3.2 | 0.00 | 0.00 | 0.00 | 32 | 1017.2 |
| 20260831182113 | 37 | 256 | 4.8 | 9.7 | 0.00 | 0.00 | 0.00 | 32 | 1017.3 |
| 20260831181608 | 38 | 252 | 1.6 | 11.3 | 0.00 | 0.00 | 0.00 | 33 | 1017.1 |
| 20260831181107 | 38 | 51 | 3.2 | 16.1 | 0.00 | 0.00 | 0.00 | 33 | 1017.3 |
| 20260831180602 | 38 | 206 | 4.8 | 11.3 | 0.00 | 0.00 | 0.00 | 32 | 1017.2 |
| 20260831180058 | 38 | 28 | 1.6 | 16.1 | 0.00 | 0.00 | 0.00 | 34 | 1017.2 |